Location: Carnoy
(49.9849°N, 2.7558°E)
Time: 15:59:16
(UTC+00:00)

Cosmos 2297 Rocket - Pass Details

Date: 24 January 2020
Orbit: 838 x 845 km, 71.0° (Epoch: 19 February)

Event Time Altitude Azimuth Distance (km) Brightness Sun altitude
Rises 19:22:56 0° 243° (WSW) 3,390 6.2 -27.7°
Reaches altitude 10° 19:25:41 10° 254° (WSW) 2,460 5.5 -28.1°
Maximum altitude 19:30:36 30° 315° (NW) 1,481 3.8 -28.9°
Enters shadow 19:33:48 18° 3° (N) 1,963 4.1 -29.4°
